This demonstration page uses our WeatherBlox Daily Observations layout. Learn more.

Left ArrowRight Arrow

Hourly Observations for February 28, 2017

Temp ( °F °C ) Dew Point ( °F °C ) Humidity (%) Winds ( mph kmh ) Pressure ( in mb ) Visibility ( mi km ) Precip ( " mm )
12:53 am 00:53 Partly Cloudy 42 5.6 40 4.4 92 92 E 5 7 30.18 1022 10 16 N/A
1:53 am 01:53 Clear 44 6.7 40 4.4 85 85 SE 5 7 30.16 1022 10 16 N/A
2:53 am 02:53 Clear 44 6.7 39 3.9 83 83 N N/A 30.14 1021 10 16 N/A
3:53 am 03:53 Partly Cloudy 43 6.1 40 4.4 89 89 N N/A 30.13 1020 10 16 N/A
4:53 am 04:53 Partly Cloudy 44 6.7 41 5 89 89 N N/A 30.13 1020 10 16 N/A
5:53 am 05:53 Cloudy with Light Rain 46 7.8 42 5.6 86 86 VRB 3 6 30.12 1020 10 16 0.01 0.25
6:53 am 06:53 Cloudy with Light Rain 45 7.2 44 6.7 97 97 E 7 11 30.09 1019 5 8 0.11 2.79
7:24 am 07:24 Cloudy with Light Rain 46 7.8 45 7.2 96 96 N N/A 30.09 1019 5 8 0.02 0.51
7:32 am 07:32 Cloudy with Light Rain 46 7.8 45 7.2 96 96 N N/A 30.09 1019 9 14 0.02 0.51
7:53 am 07:53 Cloudy with Heavy Rain 46 7.8 46 7.8 100 100 ESE 3 6 30.11 1020 2 3 0.07 1.78
8:14 am 08:14 Cloudy with Light Rain 46 7.8 46 7.8 100 100 SE 6 9 30.09 1019 6 10 0.02 0.51
8:53 am 08:53 Cloudy with Nearby Thunderstorms 47 8.3 47 8.3 100 100 VRB 6 9 30.10 1019 4 6 0.05 1.27
8:57 am 08:57 Cloudy with Thunderstorms 48 8.9 47 8.3 96 96 VRB 3 6 30.09 1019 3 4 0.01 0.25
9:07 am 09:07 Cloudy with Thunderstorms 47 8.3 47 8.3 100 100 VRB 5 7 30.09 1019 2 3 0.05 1.27
9:10 am 09:10 Cloudy with Nearby Thunderstorms 47 8.3 47 8.3 100 100 SSE 6 9 30.09 1019 2 3 0.06 1.52
9:14 am 09:14 Cloudy with Nearby Thunderstorms 47 8.3 47 8.3 100 100 S 7 11 30.09 1019 2 3 0.08 2.03
9:21 am 09:21 Cloudy with Rain 47 8.3 47 8.3 100 100 VRB 5 7 30.09 1019 3 4 0.09 2.29
9:40 am 09:40 Cloudy with Light Rain 48 8.9 47 8.3 96 96 VRB 6 9 30.09 1019 4 6 0.13 3.30
9:53 am 09:53 Cloudy with Light Rain 48 8.9 48 8.9 100 100 VRB 6 9 30.05 1018 6 10 0.14 3.56
10:06 am 10:06 Cloudy with Light Rain 49 9.4 48 8.9 97 97 SSE 8 13 30.06 1018 8 13 N/A
10:12 am 10:12 Cloudy 49 9.4 48 8.9 97 97 VRB 7 11 30.06 1018 10 16 N/A
10:23 am 10:23 Cloudy 49 9.4 49 9.4 100 100 SSE 7 11 30.06 1018 9 14 N/A
10:45 am 10:45 Cloudy with Nearby Thunderstorms 50 10 50 10 100 100 VRB 3 6 30.06 1018 8 13 N/A
10:53 am 10:53 Cloudy with Nearby Thunderstorms 50 10 50 10 100 100 VRB 5 7 30.05 1018 4 6 0.02 0.51
10:59 am 10:59 Cloudy with Nearby Thunderstorms 50 10 50 10 100 100 S 5 7 30.09 1019 2 3 0.02 0.51
11:10 am 11:10 Cloudy with Rain 51 10.6 51 10.6 100 100 SSW 5 7 30.09 1019 2 3 0.05 1.27
11:14 am 11:14 Cloudy with Rain 51 10.6 51 10.6 100 100 S 5 7 30.09 1019 2 2 0.07 1.78
11:23 am 11:23 Cloudy with Heavy Rain 51 10.6 51 10.6 100 100 VRB 3 6 30.06 1018 1 2 0.12 3.05
11:30 am 11:30 Cloudy with Rain 51 10.6 51 10.6 100 100 SE 7 11 30.06 1018 2 3 0.15 3.81
11:44 am 11:44 Cloudy with Rain 51 10.6 50 10 96 96 SE 8 13 30.06 1018 4 6 0.19 4.83
11:53 am 11:53 Cloudy with Light Rain 51 10.6 50 10 96 96 VRB 7 11 30.03 1017 4 6 0.20 5.08
12:01 pm 12:01 Cloudy with Light Rain 51 10.6 51 10.6 100 100 S 8 13 30.06 1018 9 14 N/A
12:50 pm 12:50 Cloudy 54 12 52 11 94 94 SSE 9 15 30.03 1017 10 16 N/A
12:53 pm 12:53 Cloudy 54 12.2 53 11.7 97 97 S 9 15 30.01 1016 10 16 N/A
1:15 pm 13:15 Cloudy 54 12.2 52 11.1 93 93 S 6 9 30.03 1017 10 16 N/A
1:53 pm 13:53 Cloudy with Light Rain 55 12.8 53 11.7 93 93 VRB 5 7 29.97 1015 10 16 N/A
2:13 pm 14:13 Cloudy with Rain 54 12.2 53 11.7 97 97 SE 6 9 29.97 1015 5 8 0.02 0.51
2:53 pm 14:53 Cloudy with Light Rain 55 12.8 54 12.2 96 96 VRB 3 6 29.96 1014 10 16 0.03 0.76
3:15 pm 15:15 Cloudy with Light Thunderstorms 56 13.3 55 12.8 97 97 SSE 7 11 29.94 1014 8 13 0.01 0.25
3:36 pm 15:36 Cloudy with Nearby Thunderstorms 56 13.3 55 12.8 97 97 SSE 9 15 29.91 1013 10 16 0.01 0.25
3:51 pm 15:51 Cloudy with Nearby Thunderstorms 57 14 55 13 94 94 undefined N/A 29.91 1013 10 16 0.01 0.25
3:53 pm 15:53 Cloudy with Nearby Thunderstorms 57 13.9 56 13.3 96 96 SSE 5 7 29.91 1013 10 16 0.01 0.25
3:58 pm 15:58 Cloudy with Nearby Thunderstorms 57 13.9 56 13.3 96 96 VRB 5 7 29.91 1013 8 13 N/A
4:00 pm 16:00 Cloudy with Light Thunderstorms 57 13.9 56 13.3 96 96 VRB 6 9 29.91 1013 7 11 N/A
4:02 pm 16:02 Cloudy with Thunderstorms 57 13.9 56 13.3 96 96 VRB 3 6 29.91 1013 7 11 N/A
4:17 pm 16:17 Cloudy with Thunderstorms 56 13.3 56 13.3 100 100 VRB 7 11 29.91 1013 2 3 0.04 1.02
4:24 pm 16:24 Cloudy with Nearby Thunderstorms 56 13.3 56 13.3 100 100 VRB 5 7 29.91 1013 3 4 0.05 1.27
4:31 pm 16:31 Cloudy with Light Rain 56 13.3 56 13.3 100 100 SSE 7 11 29.91 1013 4 6 0.06 1.52
4:46 pm 16:46 Cloudy with Light Rain 57 13.9 56 13.3 96 96 SSE 6 9 29.91 1013 9 14 0.06 1.52
4:53 pm 16:53 Cloudy with Light Rain 56 13.3 56 13.3 100 100 SSE 6 9 29.91 1013 8 13 0.06 1.52
5:02 pm 17:02 Cloudy with Light Rain 56 13.3 56 13.3 100 100 SSE 5 7 29.91 1013 6 10 0.01 0.25
5:28 pm 17:28 Cloudy 56 13.3 56 13.3 100 100 N N/A 29.91 1013 9 14 0.01 0.25
5:53 pm 17:53 Cloudy with Light Rain 56 13.3 56 13.3 100 100 N N/A 29.90 1012 8 13 0.01 0.25
6:19 pm 18:19 Cloudy 56 13.3 56 13.3 100 100 VRB 5 7 29.88 1012 8 13 N/A
6:53 pm 18:53 Cloudy 57 13.9 57 13.9 100 100 N N/A 29.87 1012 7 11 N/A
7:17 pm 19:17 Cloudy with Mist and Fog 57 13.9 57 13.9 100 100 N N/A 29.88 1012 6 10 N/A
7:53 pm 19:53 Mostly Cloudy with Mist and Fog 57 13.9 56 13.3 96 96 ESE 3 6 29.85 1011 6 10 N/A
8:15 pm 20:15 Partly Cloudy with Mist and Fog 57 13.9 57 13.9 100 100 N N/A 29.83 1010 6 10 N/A
8:53 pm 20:53 Mostly Cloudy 59 15 58 14.4 96 96 VRB 3 6 29.83 1010 8 13 N/A
9:53 pm 21:53 Cloudy 63 17.2 61 16.1 93 93 S 10 17 29.82 1010 10 16 N/A
10:53 pm 22:53 Cloudy 64 17.8 61 16.1 90 90 S 10 17 29.80 1009 10 16 N/A
11:15 pm 23:15 Cloudy 64 17.8 61 16.1 90 90 VRB 6 9 29.80 1009 10 16 N/A
11:53 pm 23:53 Cloudy 64 17.8 61 16.1 90 90 SSW 8 13 29.78 1008 10 16 N/A

Powered by AerisWeather